OPS 4682 DEB, 38424

Orbit data source: Space-Track

OPS 4682 DEB, 38424 is space debris in LEO originally from a launch on Sat, 03 Apr 1965 UTC launched from the Air Force Western Test Range (AFWTR). Debris objects in space refer to the collection of defunct objects orbiting the Earth. Examples of debris include non-operational satellites, rocket bodies, and fragments generated from explosions, collisions, or faulty payload assembly.

Loading next visibility...
Identifier
38424, 1965-027ED
Orbit
LEO
Country
Flag of USUS
Related business
Manufacturer
Unknown
Mission
Spacecraft
Bus & Motor
Unknown
Mass
Unknown
Launch date (UTC)
1965-04-03 (61 years ago)
Launch vehicle
Unknown
Launch site
Air Force Western Test Range (AFWTR)
Object type
Payload
Rocket body
Debris
Shape & HBR
Unknown shape, 0.1 m
Radar Cross Section
Medium (>0.1 m² and <1 m²)

Expand to show TLE details & history
Last TLE update: 17 hours ago

TLE from 17 hours ago
0 OPS 4682 DEB
1 38424U 65027ED  26263.05547140  .00001008  00000-0  31366-2 0  9996
2 38424  90.2600   9.3513 0025055 257.2972 102.5352 13.04022063324190
Epoch: 2026-09-20T01:19Z
TLE epoch observation values (Epoch: 2026-09-20T01:19:52.728Z)
Latitude
0.00001°
Longitude
-9.57355°
Altitude
1,253.45 km
Speed
7.226 km/s
True Right ascension
00h 37m 24s
True Declination
0° 00' 00"
Sunlit
Object was in full shadow at epoch
Visualization orbit readout
Latitude
Unknown
Longitude
Unknown
Altitude
Unknown
Speed
Unknown
Apparent Right ascension
Unknown
Apparent Declination
Unknown
Sunlit
N/A
Visualization observer readout
Local Sidereal Time
10:57:16
Azimuth
Unknown
Elevation
Unknown
Doppler factor
Unknown
Orbital elements
Apogee altitude
1,262.585 km
Perigee altitude
1,224.394 km
Semi-major axis
7,621.626 km
Eccentricity
0.00251
Inclination
90.26°
RAAN
9.3513°
Arg. of periapsis
257.2972°
True anomaly
102.81527°
Mean anomaly
102.5352°
Eccentric anomaly
102.67526°
Mean motion
3.26191 °/min
Orbital period
110.36 mins
BSTAR
0.0031366
Loading maneuver chart data...
Computing Atmospheric mass density...
Loading historical data...
Loading historical data...
Loading historical data...
Loading historical data...
Loading historical data...
Loading historical data...
Loading historical data...

Documentation

Showing up to 5 results
|